Location: Bauersach School (historical)
(38.0926°N, 89.4806°W)
Time: 02:41:55
(UTC+00:00)

YAOGAN 1 - Pass Details

Date: 11 December 2025
Orbit: 605 x 607 km, 97.8° (Epoch: 15 January)

Event Time Altitude Azimuth Distance (km) Brightness Sun altitude
Rises 23:20:16 0° 124° (SE) 2,854 5.6 -8.2°
Reaches altitude 10° 23:23:13 10° 102° (ESE) 1,956 4.6 -8.8°
Maximum altitude 23:25:40 15° 66° (ENE) 1,641 4.1 -9.2°
Drops below altitude 10° 23:28:08 10° 31° (NNE) 1,963 4.7 -9.7°
Sets 23:31:05 0° 8° (N) 2,872 5.7 -10.2°
